This is the latest recevied weather packets stored in our database for station/object N5DGC. If no packets are shown the sender has not sent any weather packets the latest 10 day(s).
| Time | Temp. | Humidity | Pressure | Rain* | Wind** | Luminosity | Snow |
|---|---|---|---|---|---|---|---|
| 1777913203 | 20° C | 23% | 1234.4 hPa | 0 mm | - | 361 W/m² | - |
| 1777912898 | 19.44° C | 25% | 1234.5 hPa | 0 mm | - | 316 W/m² | - |
| 1777912596 | 20° C | 26% | 1234.2 hPa | 0 mm | - | 307 W/m² | - |
| 1777912292 | 20° C | 25% | 1234.4 hPa | 0 mm | - | 312 W/m² | - |
| 1777911988 | 20° C | 25% | 1234.5 hPa | 0 mm | - | 309 W/m² | - |
| 1777911684 | 20° C | 24% | 1234.4 hPa | 0 mm | - | 329 W/m² | - |
| 1777911380 | 19.44° C | 24% | 1234.2 hPa | 0 mm | - | 362 W/m² | - |
| 1777911079 | 20° C | 24% | 1234.1 hPa | 0 mm | - | 330 W/m² | - |
| 1777910775 | 20° C | 24% | 1234.6 hPa | 0 mm | - | 323 W/m² | - |
| 1777910472 | 20° C | 26% | 1234.5 hPa | 0 mm | - | 326 W/m² | - |
| 1777910168 | 19.44° C | 28% | 1234.2 hPa | 0 mm | - | 345 W/m² | - |
| 1777909866 | 19.44° C | 27% | 1234.4 hPa | 0 mm | - | 348 W/m² | - |
| 1777909563 | 18.89° C | 30% | 1234.7 hPa | 0 mm | - | 279 W/m² | - |
| 1777909260 | 18.89° C | 37% | 1234.7 hPa | 0 mm | - | 287 W/m² | - |
| 1777908958 | 18.33° C | 33% | 1234.7 hPa | 0 mm | - | 247 W/m² | - |
| 1777908656 | 18.33° C | 34% | 1234.7 hPa | 0 mm | - | 268 W/m² | - |
| 1777908352 | 17.78° C | 42% | 1234.6 hPa | 0 mm | - | 240 W/m² | - |
| 1777908049 | 17.78° C | 47% | 1234.7 hPa | 0 mm | - | 257 W/m² | - |
| 1777907744 | 17.22° C | 48% | 1234.4 hPa | 0 mm | - | 235 W/m² | - |
| 1777907439 | 17.22° C | 47% | 1234.9 hPa | 0 mm | - | 209 W/m² | - |
| 1777907136 | 17.22° C | 49% | 1234.8 hPa | 0 mm | - | 209 W/m² | - |
| 1777906834 | 16.67° C | 49% | 1234.8 hPa | 0 mm | - | 208 W/m² | - |
| 1777906531 | 16.67° C | 51% | 1234.9 hPa | 0 mm | - | 194 W/m² | - |
| 1777906226 | 16.11° C | 51% | 1235.2 hPa | 0 mm | - | 192 W/m² | - |
| 1777905923 | 16.11° C | 52% | 1234.9 hPa | 0 mm | - | 176 W/m² | - |
* Rain latest hour (hover to see other rain measurements)
** Current wind speed in m/s (hover to see current wind gust speed)